Weather History for Dansville, NY

Change the Weather History Date:

Saturday, February 22, 2014

  Actual Average Record
Temperature  
Mean Temperature 42 °F -  
Max Temperature 48 °F 40 °F 62 °F (1953)
Min Temperature 35 °F 21 °F -2 °F (1963)
Degree Days  
Heating Degree Days 24    
Moisture  
Dew Point 19 °F    
Average Humidity 42    
Maximum Humidity 70    
Minimum Humidity 21    
Precipitation  
Precipitation 0.00 in - - ()
Sea Level Pressure  
Sea Level Pressure 29.92 in    
Wind  
Wind Speed 8 mph (SW)    
Max Wind Speed 15 mph    
Max Gust Speed 32 mph    
Visibility 10 miles    
Events      
Averages and records for this station are not official NWS values.
T = Trace of Precipitation, MM = Missing Value Source: NWS Daily Summary

Daily Weather History Graph

Daily Weather History Graph

Search for Another Location

Airport:

Trip Planner

Search our weather history database for the weather conditions in past years. The results will help you decide how hot, cold, wet, or windy it might be!

Date:

Astronomy

Feb. 22, 2014 Rise Set
Actual Time 6:57 AM EST 5:51 PM EST
Civil Twilight 6:28 AM EST 6:20 PM EST
Nautical Twilight 5:56 AM EST 6:53 PM EST
Astronomical Twilight 5:23 AM EST 7:25 PM EST
Moon 12:53 AM EST (2/22) 10:57 AM EST (2/22)
Length of Visible Light 11h 51m
Length of Day
10h 54m
Waning Gibbous, 50% of the Moon is Illuminated
Feb 22
Waning Gibbous
Feb 22
Last Quarter
Mar 1
New
Mar 8
First Quarter
Mar 16
Full

Hourly Weather History & Observations

Time (EST) Temp. Windchill Dew Point Humidity Pressure Visibility Wind Dir Wind Speed Gust Speed Precip Events Conditions
12:54 AM 39.9 °F 35.1 °F 14.0 °F 35% 29.87 in 10.0 mi Variable 6.9 mph - N/A   Clear
1:54 AM 39.0 °F 34.0 °F 10.9 °F 32% 29.89 in 10.0 mi Variable 6.9 mph 17.3 mph N/A   Clear
2:54 AM 37.9 °F 31.5 °F 14.0 °F 38% 29.90 in 10.0 mi SSW 9.2 mph - N/A   Clear
3:54 AM 37.9 °F 33.5 °F 16.0 °F 41% 29.89 in 10.0 mi South 5.8 mph - N/A   Clear
4:54 AM 37.9 °F 32.1 °F 17.1 °F 43% 29.88 in 10.0 mi South 8.1 mph - N/A   Clear
5:54 AM 36.0 °F 30.3 °F 18.0 °F 48% 29.86 in 10.0 mi SSE 6.9 mph - N/A   Clear
6:54 AM 35.1 °F 28.6 °F 18.0 °F 50% 29.83 in 10.0 mi SSE 8.1 mph - N/A   Scattered Clouds
7:54 AM 41.0 °F 38.0 °F 15.1 °F 35% 29.85 in 10.0 mi Variable 4.6 mph - N/A   Mostly Cloudy
8:54 AM 43.0 °F 38.8 °F 18.0 °F 37% 29.84 in 10.0 mi SW 6.9 mph 18.4 mph N/A   Partly Cloudy
9:54 AM 45.0 °F 40.1 °F 21.9 °F 40% 29.86 in 10.0 mi WSW 9.2 mph 27.6 mph N/A   Scattered Clouds
10:54 AM 45.0 °F 41.2 °F 21.9 °F 40% 29.88 in 10.0 mi Variable 6.9 mph 28.8 mph N/A   Overcast
11:54 AM 45.0 °F 39.7 °F 21.9 °F 40% 29.91 in 10.0 mi West 10.4 mph 23.0 mph N/A   Overcast
12:54 PM 46.9 °F - 19.9 °F 34% 29.90 in 10.0 mi West 15.0 mph 32.2 mph N/A   Partly Cloudy
1:54 PM 46.9 °F - 14.0 °F 27% 29.89 in 10.0 mi West 15.0 mph 24.2 mph N/A   Clear
2:54 PM 48.0 °F - 9.0 °F 21% 29.90 in 10.0 mi WNW 10.4 mph 17.3 mph N/A   Clear
3:54 PM 46.9 °F - 9.0 °F 21% 29.91 in 10.0 mi West 8.1 mph 21.9 mph N/A   Scattered Clouds
4:54 PM 45.0 °F 39.7 °F 10.9 °F 25% 29.94 in 10.0 mi West 10.4 mph 21.9 mph N/A   Overcast
5:54 PM 42.1 °F 36.6 °F 19.0 °F 40% 29.97 in 10.0 mi WSW 9.2 mph 21.9 mph N/A   Overcast
6:54 PM 41.0 °F 35.2 °F 23.0 °F 49% 30.00 in 10.0 mi West 9.2 mph 21.9 mph N/A   Overcast
7:54 PM 39.0 °F 36.8 °F 24.1 °F 55% 30.00 in 10.0 mi WNW 3.5 mph - N/A   Overcast
8:54 PM 37.0 °F 34.5 °F 25.0 °F 62% 29.99 in 10.0 mi Variable 3.5 mph - N/A   Overcast
9:54 PM 39.9 °F 34.5 °F 28.0 °F 63% 30.01 in 10.0 mi West 8.1 mph - N/A   Overcast
10:54 PM 39.0 °F - 28.9 °F 67% 30.00 in 10.0 mi Calm Calm - N/A   Overcast
11:54 PM 39.0 °F 36.8 °F 30.0 °F 70% 30.00 in 10.0 mi South 3.5 mph - N/A   Overcast